Overview Statistics Trail Chart Weather Telemetry Raw packets
 

This is the latest recevied weather packets stored in our database for station/object 4S6DRJ-13. If no packets are shown the sender has not sent any weather packets the latest 10 day(s).

<< 405 406 407 408 409 410 411 >>
Time Temp. Humidity Pressure Rain* Wind** Luminosity Snow
1787847980 27.78° C 87% 1011.2 hPa 0 mm 0.45 m/s, 206° 0 W/m² -
1787847918 28.33° C 86% 1011.1 hPa 0 mm 0.89 m/s, 264° 0 W/m² -
1787847858 28.33° C 86% 1011.2 hPa 0 mm 0 m/s 0 W/m² -
1787847797 28.33° C 86% 1011.1 hPa 0 mm 0 m/s 0 W/m² -
1787847735 28.33° C 86% 1011.2 hPa 0 mm 0.89 m/s, 239° 0 W/m² -
1787847674 28.33° C 86% 1011.1 hPa 0 mm 0.89 m/s, 252° 0 W/m² -
1787847614 28.33° C 86% 1011.3 hPa 0 mm 0.89 m/s, 280° 0 W/m² -
1787847553 28.33° C 86% 1011.1 hPa 0 mm 0 m/s 0 W/m² -
1787847492 28.33° C 86% 1011.2 hPa 0 mm 0 m/s 0 W/m² -
1787847431 28.33° C 86% 1011.1 hPa 0 mm 0.45 m/s, 223° 0 W/m² -
1787847370 28.33° C 86% 1011.3 hPa 0 mm 0.89 m/s, 279° 0 W/m² -
1787847309 27.78° C 86% 1011.1 hPa 0 mm 0.45 m/s, 263° 0 W/m² -
1787847248 27.78° C 86% 1011.1 hPa 0 mm 0.45 m/s, 238° 0 W/m² -
1787847187 27.78° C 86% 1011.2 hPa 0 mm 0.45 m/s, 228° 0 W/m² -
1787847126 27.78° C 86% 1011 hPa 0 mm 0.89 m/s, 223° 0 W/m² -
1787847065 27.78° C 86% 1011.1 hPa 0 mm 2.24 m/s, 247° 0 W/m² -
1787847004 27.78° C 86% 1011.1 hPa 0 mm 1.34 m/s, 251° 0 W/m² -
1787846944 27.78° C 87% 1010.8 hPa 0 mm 0.45 m/s, 250° 0 W/m² -
1787846882 27.78° C 87% 1010.9 hPa 0 mm 0.45 m/s, 245° 0 W/m² -
1787846821 27.78° C 87% 1011.3 hPa 0 mm 0 m/s 0 W/m² -
1787846760 27.78° C 87% 1011 hPa 0 mm 1.34 m/s, 234° 0 W/m² -
1787846699 27.78° C 87% 1011.1 hPa 0 mm 1.79 m/s, 254° 0 W/m² -
1787846638 27.78° C 87% 1011.2 hPa 0 mm 0 m/s 0 W/m² -
1787846577 27.78° C 87% 1011 hPa 0 mm 0.89 m/s, 264° 0 W/m² -
1787846516 27.78° C 87% 1011 hPa 0 mm 1.34 m/s, 214° 0 W/m² -

* Rain latest hour (hover to see other rain measurements)
** Current wind speed in m/s (hover to see current wind gust speed)